Regional Weather Roundup
Issued by NWS Albany, NY

Home | Current Version | Previous Version | Text Only | Print | Product List | Glossary On
Versions: 1 2 3 4 5 6 7 8 9 10 11 12 13 14 15 16 17 18 19 20 21 22 23 24 25 26 27 28
000
ASUS41 KALY 230810
RWRALY

NEW YORK STATE HOURLY WEATHER ROUNDUP
NATIONAL WEATHER SERVICE ALBANY NY
400 AM EDT MON APR 23 2018

NOTE: "FAIR" INDICATES FEW OR NO CLOUDS BELOW 12,000 FEET WITH NO
SIGNIFICANT WEATHER AND/OR NO OBSTRUCTIONS TO VISIBILITY.

NYZ032-033-038>043-046>054-057>066-NYZ062>081-082-084-230900-
EAST


CITY           SKY/WX    TMP DP  RH WIND       PRES   REMARKS
ALBANY         FAIR      35  22  58 CALM      30.45R
GLENS FALLS    FAIR      26  25  96 CALM      30.44R
POUGHKEEPSIE   FAIR      32  24  72 CALM      30.43R
NEWBURGH       CLEAR     37  30  75 CALM      30.43R
MONTGOMERY     FAIR      31  27  85 CALM      30.43R
WHITE PLAINS   FAIR      38  29  70 NW6       30.40R WCI  33
ISLIP          FAIR      38  30  73 CALM      30.41R
NEW YORK CITY  FAIR      47  33  58 CALM      30.41R
CENTRAL PARK   FAIR      48  28  46 CALM      30.43R
$$

NYZ005>009-017-018-044>046-055-056-230900-
CENTRAL


CITY           SKY/WX    TMP DP  RH WIND       PRES   REMARKS
FULTON         FAIR      30  24  78 SE3       30.43R
SYRACUSE       FAIR      33  23  66 SE5       30.43R WCI  29
ROME           FAIR      29  22  75 E3        30.46R
ELMIRA         FAIR      27  22  81 CALM      30.44R
BINGHAMTON     FAIR      37  14  38 CALM      30.40S
MONTICELLO     FAIR      31  23  72 NE3       30.44R
$$

NYZ026>034-041>043-087-230900-
NORTH


CITY           SKY/WX    TMP DP  RH WIND       PRES   REMARKS
WATERTOWN      FAIR      26  24  92 E6        30.42R WCI  19
FORT DRUM      NOT AVBL
OGDENSBURG     FAIR      31  29  92 CALM      30.42R
MASSENA        FAIR      27  23  85 CALM      30.43R
SARANAC LAKE   FAIR      19  17  92 CALM      30.39S
PLATTSBURGH    FAIR      27  23  85 CALM      30.42R
$$

NYZ001>004-010>016-019>021-085-230900-
WEST


CITY           SKY/WX    TMP DP  RH WIND       PRES   REMARKS
NIAGARA FALLS  FAIR      41  22  46 E6        30.37S
BUFFALO        FAIR      42  22  44 SE8       30.37S
DUNKIRK        FAIR      50  21  32 SE15G24   30.34F
JAMESTOWN      FAIR      45  18  34 SE8       30.35S
WELLSVILLE     FAIR      39  18  42 SE6       30.39S WCI  35
ROCHESTER      FAIR      38  29  70 CALM      30.41R
PENN YAN       FAIR      34  25  69 SW6       30.42R WCI  29
$$

             KEY
       WCI = WIND CHILL INDEX
       VSB = VISIBILITY
       HX  = HEAT INDEX
$$




USA.gov is the U.S. government's official web portal to all federal, state and local government web resources and services.